カタログに戻る

CZ-4 DEB

運用中PO
NORAD 20888·DEBRIS·🇨🇳 China

打ち上げ Sep 3, 1990 から Taiyuan Satellite Launch Center

Loading…

次のパス (今後24時間)

TLE

最新Source: Space-Track

元期: Sep 14, 2026, 08:48 UTC

1 20888U 90081AY  26257.36698579  .00003065  00000-0  10137-2 0  9997
2 20888  99.1983 127.0196 0176060 340.5681  18.8844 14.30358832839965

AllMySatでCZ-4 DEBをリアルタイム追跡

Download on the App Store